Track STARLINK-2284 now! 10-day predictions STARLINK-2284 is classified as:
1 48016U 21024AR 22183.40046103 .00000545 00000-0 55477-4 0 9998 2 48016 53.0547 175.5480 0001903 59.9990 300.1188 15.06394035 72825